Wind_Speed
48 47 46 45 44 43 42 42 42 41 41 40 40 41 41 40 40 39 39 39 39 39 38 38 38 38 38 37 37 38 38 38 39 39 40 40 40 40
48 48 48 47 46 45 45 44 43 42 42 41 41 41 42 42 42 42 41 40 40 40 40 40 40 40 40 39 39 39 39 40 40 41 41 41 41 41
50 50 50 50 49 47 46 46 45 44 43 42 42 42 42 43 43 42 42 41 41 41 41 42 42 42 41 41 41 41 41 41 41 42 42 42 42 42
50 51 51 52 51 50 48 47 46 46 45 44 43 42 43 43 43 43 43 42 42 42 43 43 43 42 42 42 42 42 42 42 42 42 43 43 43 43
51 51 52 53 53 51 50 48 48 47 47 46 45 44 44 43 43 43 43 44 44 44 44 44 44 43 43 43 43 42 42 43 43 43 43 44 44 44
52 52 53 54 54 53 52 51 50 49 48 47 47 47 46 45 45 45 44 45 45 45 44 44 44 44 44 44 43 43 43 43 44 44 45 45 45 45
53 53 53 54 54 54 53 52 51 51 50 50 49 49 48 47 47 47 46 45 45 45 45 46 46 45 45 45 45 45 45 45 45 46 46 46 47 47
53 53 54 54 54 54 54 53 53 53 52 51 50 50 50 50 49 48 47 46 46 47 47 47 46 46 46 46 46 46 46 47 47 47 47 48 49 49
54 54 54 54 54 54 55 55 54 54 53 52 51 51 51 52 51 50 48 47 47 47 47 47 47 47 48 48 48 48 48 48 48 49 49 50 51 51
52 53 54 55 55 55 55 54 54 54 53 53 53 52 53 53 52 51 49 49 49 49 49 49 49 49 50 49 49 49 49 49 49 50 51 52 52 53
51 52 52 53 54 54 55 54 53 53 53 53 53 53 53 53 53 52 52 51 50 50 49 50 51 52 52 51 51 51 52 52 52 52 52 53 53 53
51 52 52 52 52 53 53 53 53 53 53 53 53 53 53 53 53 53 53 53 53 53 52 52 52 53 53 52 53 53 53 53 54 54 54 54 53 53
49 49 50 51 52 51 51 51 52 53 53 53 53 53 53 53 52 53 53 54 54 54 53 53 53 53 54 53 54 54 55 55 55 55 54 55 54 54
47 48 48 49 49 49 49 49 50 51 51 51 51 52 52 53 53 54 53 53 54 54 54 53 53 53 53 54 54 55 56 56 55 54 54 55 55 54
44 45 46 46 47 47 47 47 48 50 50 50 51 51 51 52 53 53 53 53 53 53 53 54 54 54 54 54 54 54 54 54 53 53 53 53 53 53
45 46 46 46 47 48 48 49 50 50 50 50 50 50 51 51 51 52 52 52 53 52 53 53 54 54 54 53 53 52 52 52 52 52 53 52 51 51
43 44 45 46 47 47 48 49 49 49 49 49 50 50 50 50 51 51 51 52 52 52 52 53 54 54 54 53 51 50 50 50 50 51 51 51 50 51
42 43 44 44 45 46 46 47 48 48 48 48 48 49 49 50 50 51 51 52 52 52 52 52 53 53 53 51 50 50 50 49 49 50 50 50 50 50
39 41 42 43 44 45 46 46 47 47 47 47 48 48 48 49 49 50 51 51 51 51 51 52 52 52 52 50 50 49 49 48 49 49 49 49 49 49
38 39 42 43 43 43 44 45 45 46 47 47 47 47 48 48 49 49 49 50 50 50 51 51 51 51 51 50 49 49 49 49 49 48 49 49 49 49
37 38 39 41 42 42 43 44 45 46 47 47 47 47 47 48 48 48 49 49 49 49 49 49 49 50 50 50 50 49 49 49 49 49 48 48 49 49
37 38 39 40 41 42 43 44 44 45 46 46 46 46 46 46 46 46 47 47 47 47 47 48 49 49 49 48 48 48 48 49 49 48 48 48 48 48
36 38 39 40 40 41 41 42 43 44 45 45 45 46 46 45 45 45 46 46 46 46 46 46 46 46 46 46 46 47 47 48 48 47 48 48 47 47
Wind_Direction
244 244 245 245 246 246 246 248 248 250 252 252 251 251 252 253 253 255 257 258 260 262 264 265 268 271 273 275 276 278 279 281 282 283 284 285 286 287
244 244 245 246 247 246 246 246 248 251 253 251 251 252 253 254 255 256 257 258 260 262 263 265 268 270 272 274 275 277 279 281 282 283 284 285 285 286
245 245 245 247 247 247 247 247 248 250 253 252 251 251 253 254 255 256 257 258 260 261 263 265 267 270 271 273 275 276 278 280 281 282 284 285 285 285
245 244 245 246 247 248 248 249 250 251 252 251 251 251 252 255 255 255 256 258 259 261 263 265 267 269 270 273 274 276 278 279 280 282 283 284 285 285
245 245 245 246 246 247 248 249 251 252 253 253 252 252 253 255 255 255 256 257 259 261 263 265 267 268 270 272 273 275 277 278 279 281 283 284 284 285
245 245 245 246 246 247 248 249 251 252 253 253 253 253 254 255 255 255 257 259 259 261 263 264 266 267 269 271 273 274 276 278 279 281 282 284 284 285
245 245 245 245 246 247 247 249 250 251 252 254 254 253 254 254 255 256 258 260 261 261 263 264 266 267 268 271 273 274 276 277 279 280 282 283 284 285
245 245 245 246 247 247 246 247 249 250 252 253 253 253 254 253 254 256 258 259 261 262 263 264 265 266 268 270 272 274 276 277 279 280 281 282 284 285
245 245 245 246 246 247 247 248 249 249 250 251 252 253 253 253 254 256 258 259 260 261 262 263 264 267 269 270 271 273 276 278 279 279 282 282 283 284
246 246 245 246 246 247 248 249 250 250 250 252 253 254 254 253 253 254 257 259 260 261 262 263 265 267 268 269 271 272 274 277 279 279 281 282 282 283
245 246 247 247 246 247 248 249 250 251 252 253 254 254 255 254 254 255 258 259 261 262 263 264 265 267 268 269 271 273 274 276 278 279 280 282 282 283
246 246 246 247 247 248 249 250 251 251 251 252 254 255 255 255 255 257 259 260 261 262 263 265 265 266 267 269 271 273 274 276 277 279 280 281 282 283
246 245 246 247 248 249 249 250 250 250 251 252 253 254 254 254 256 259 259 260 261 263 264 265 266 267 268 270 271 273 274 276 278 280 280 281 282 283
246 244 244 246 248 248 248 248 248 249 251 252 252 252 253 255 257 258 259 261 262 263 264 266 267 268 269 270 272 273 274 276 277 279 280 281 281 282
246 244 244 245 246 247 248 249 251 251 252 253 252 252 254 256 257 258 260 261 262 263 265 266 268 268 270 271 273 274 275 275 276 277 279 280 281 282
247 246 246 246 247 248 249 250 252 254 254 253 252 253 254 256 258 259 259 261 263 264 266 267 269 270 271 272 273 273 274 275 275 277 279 281 281 282
246 246 246 247 248 249 250 251 252 253 254 253 252 253 255 257 258 258 260 261 263 264 266 268 269 270 271 272 273 273 274 275 276 278 280 280 282 284
246 247 248 249 249 250 251 252 253 253 254 254 255 256 256 257 258 260 261 262 263 265 267 268 269 270 271 272 272 273 274 275 277 279 280 281 282 283
247 248 248 248 249 251 252 253 253 253 254 255 256 257 257 257 259 260 261 262 264 266 268 269 269 270 270 270 272 273 275 277 278 279 280 281 282 283
249 249 249 249 250 251 251 251 252 253 254 255 257 259 259 259 259 260 261 263 265 266 268 269 270 269 269 269 271 273 275 277 279 280 281 282 283 284
251 251 250 250 250 250 250 251 253 254 255 256 258 259 259 259 260 261 262 263 264 266 267 268 268 269 269 270 271 273 275 277 279 280 281 282 283 284
250 251 251 250 251 252 252 252 253 254 255 256 256 257 258 259 260 261 262 263 264 265 266 266 268 269 270 270 271 273 274 276 278 280 281 282 283 284
252 252 253 252 252 253 253 253 254 254 255 256 256 257 258 260 261 262 263 263 264 265 266 267 268 269 270 271 272 273 274 275 277 279 281 282 283 284
Height
5703 5706 5710 5714 5717 5720 5724 5727 5730 5732 5735 5738 5740 5742 5744 5747 5749 5751 5753 5754 5756 5757 5758 5758 5758 5758 5758 5757 5756 5755 5754 5752 5750 5748 5746 5744 5742 5740
5691 5694 5698 5702 5705 5709 5712 5716 5718 5722 5724 5727 5729 5731 5733 5735 5738 5740 5742 5744 5745 5747 5747 5748 5748 5748 5748 5747 5746 5745 5744 5742 5740 5738 5736 5734 5732 5729
5678 5683 5686 5690 5693 5697 5700 5704 5707 5710 5713 5716 5718 5720 5722 5724 5727 5729 5731 5733 5734 5736 5737 5737 5737 5737 5737 5737 5736 5735 5733 5732 5730 5728 5726 5723 5721 5719
5666 5670 5674 5677 5681 5685 5689 5692 5695 5698 5701 5704 5706 5709 5711 5713 5715 5718 5719 5721 5723 5724 5725 5726 5726 5726 5726 5726 5725 5724 5723 5721 5719 5717 5715 5713 5710 5708
5653 5657 5661 5664 5669 5672 5676 5680 5683 5686 5689 5692 5695 5697 5700 5701 5704 5706 5707 5709 5711 5712 5713 5714 5714 5714 5714 5714 5713 5713 5711 5710 5709 5707 5704 5702 5699 5697
5639 5643 5647 5651 5656 5659 5663 5667 5670 5674 5676 5679 5682 5685 5687 5689 5691 5693 5696 5697 5699 5700 5701 5701 5702 5702 5702 5702 5702 5701 5700 5698 5697 5695 5693 5691 5688 5685
5625 5629 5633 5638 5642 5646 5650 5654 5657 5660 5663 5666 5669 5672 5674 5677 5679 5681 5683 5685 5686 5687 5688 5689 5690 5690 5690 5690 5690 5689 5688 5687 5685 5683 5681 5679 5676 5673
5611 5615 5620 5624 5628 5632 5636 5640 5644 5647 5650 5653 5656 5659 5661 5664 5666 5668 5670 5672 5674 5676 5676 5677 5677 5678 5678 5678 5678 5677 5676 5674 5673 5671 5669 5666 5663 5661
5596 5601 5606 5610 5614 5618 5622 5626 5629 5633 5637 5640 5643 5645 5648 5651 5653 5655 5657 5659 5661 5662 5663 5665 5665 5665 5665 5665 5665 5664 5663 5661 5659 5657 5655 5653 5650 5648
5582 5587 5592 5596 5600 5604 5608 5611 5615 5619 5623 5627 5630 5633 5635 5636 5639 5642 5644 5646 5648 5648 5649 5651 5652 5652 5652 5652 5651 5650 5649 5648 5646 5644 5642 5639 5637 5634
5568 5573 5577 5582 5587 5591 5594 5598 5602 5605 5608 5612 5615 5618 5620 5623 5626 5628 5629 5631 5634 5636 5636 5637 5638 5638 5639 5639 5638 5637 5635 5634 5632 5630 5628 5625 5623 5620
5555 5559 5564 5568 5572 5575 5579 5584 5588 5591 5594 5598 5601 5603 5606 5609 5611 5614 5616 5618 5620 5622 5622 5623 5624 5624 5625 5626 5624 5623 5621 5620 5618 5615 5613 5611 5608 5606
5541 5545 5550 5554 5558 5561 5565 5570 5574 5577 5580 5583 5586 5589 5592 5595 5598 5600 5602 5604 5606 5608 5609 5609 5609 5609 5609 5611 5611 5609 5607 5605 5603 5601 5598 5596 5594 5591
5528 5533 5537 5541 5544 5548 5552 5556 5559 5562 5565 5568 5572 5575 5578 5581 5584 5586 5587 5589 5591 5592 5593 5594 5594 5595 5595 5595 5596 5595 5593 5590 5589 5586 5584 5581 5579 5576
5516 5520 5524 5528 5532 5535 5539 5543 5545 5548 5551 5554 5558 5562 5565 5567 5569 5571 5573 5574 5576 5577 5578 5579 5579 5579 5579 5579 5580 5579 5578 5576 5573 5571 5569 5567 5565 5562
5504 5507 5511 5514 5518 5523 5526 5529 5532 5535 5538 5541 5545 5548 5551 5553 5555 5557 5559 5561 5562 5563 5563 5563 5564 5564 5564 5564 5564 5563 5562 5561 5559 5557 5554 5552 5550 5547
5492 5495 5499 5502 5506 5510 5513 5517 5520 5522 5525 5528 5531 5534 5537 5539 5541 5543 5545 5547 5548 5550 5550 5549 5549 5549 5549 5549 5549 5548 5547 5546 5545 5542 5540 5538 5536 5533
5481 5484 5488 5491 5495 5498 5501 5504 5507 5510 5513 5515 5518 5521 5523 5525 5527 5529 5531 5533 5534 5535 5536 5535 5535 5535 5535 5534 5534 5533 5533 5532 5530 5528 5525 5524 5523 5520
5471 5474 5477 5480 5483 5486 5489 5492 5494 5497 5500 5503 5505 5507 5509 5511 5513 5515 5516 5518 5519 5520 5521 5520 5520 5520 5520 5521 5521 5519 5518 5517 5515 5514 5512 5509 5508 5506
5461 5464 5467 5469 5472 5474 5477 5479 5482 5485 5487 5490 5492 5493 5495 5497 5499 5500 5502 5503 5504 5505 5506 5506 5505 5505 5505 5506 5506 5506 5503 5502 5501 5499 5498 5495 5493 5491
5452 5454 5456 5458 5461 5463 5465 5468 5470 5472 5475 5477 5479 5480 5482 5484 5485 5486 5487 5489 5490 5491 5491 5492 5491 5491 5490 5490 5491 5491 5489 5487 5485 5484 5482 5481 5479 5477
5442 5444 5446 5447 5449 5451 5454 5456 5458 5460 5462 5464 5466 5467 5469 5470 5472 5473 5474 5475 5476 5476 5477 5477 5477 5477 5477 5477 5477 5476 5475 5474 5471 5469 5467 5466 5463 5462
5431 5433 5434 5436 5438 5440 5442 5444 5446 5448 5449 5451 5452 5454 5456 5457 5458 5459 5460 5461 5462 5462 5463 5464 5464 5464 5463 5463 5463 5462 5461 5460 5458 5457 5455 5452 5449 5447